Weather History for Plattsburgh, NY

Change the Weather History Date:

Tuesday, June 18, 2013

  Actual Average Record
Temperature  
Mean Temperature 57 °F 65 °F  
Max Temperature 68 °F 76 °F 92 °F (1957)
Min Temperature 45 °F 54 °F 41 °F (1956)
Degree Days  
Heating Degree Days 8    
Cooling Degree Days 0 2  
Month to date cooling degree days 22 29  
Year to date cooling degree days 42 37  
Since 1 June cooling degree days 22 29  
Growing Degree Days 6 (Base 50)    
Moisture  
Dew Point 48 °F    
Average Humidity 73    
Maximum Humidity 100    
Minimum Humidity 45    
Precipitation  
Precipitation 0.00 in - 1.10 in (1977)
Month to date precipitation 4.38  
Year to date precipitation 13.57  
Sea Level Pressure  
Sea Level Pressure 29.96 in    
Wind  
Wind Speed 3 mph (ESE)    
Max Wind Speed 16 mph    
Max Gust Speed -    
Visibility 10 miles    
Events      
T = Trace of Precipitation, MM = Missing Value Source: NWS Daily Summary

Daily Weather History Graph

Daily Weather History Graph

Search for Another Location

Airport:

Trip Planner

Search our weather history database for the weather conditions in past years. The results will help you decide how hot, cold, wet, or windy it might be!

Date:

Astronomy

Jun. 18, 2013 Rise Set
Actual Time 5:08 AM EDT 8:42 PM EDT
Civil Twilight 4:31 AM EDT 9:19 PM EDT
Nautical Twilight 3:41 AM EDT 10:08 PM EDT
Astronomical Twilight 2:37 AM EDT 11:12 PM EDT
Moon 3:14 PM EDT (6/18) 1:26 AM EDT (6/18)
Length of Visible Light 16h 48m
Length of Day
15h 34m
Waxing Gibbous, 70% of the Moon is Illuminated
Jun 18
Waxing Gibbous
Jun 23
Full
Jun 30
Last Quarter
Jul 8
New
Jul 15
First Quarter

Hourly Weather History & Observations

Time (EDT) Temp. Dew Point Humidity Pressure Visibility Wind Dir Wind Speed Gust Speed Precip Events Conditions
12:53 AM 54.0 °F 48.0 °F 80% 29.94 in 10.0 mi Calm Calm - N/A   Mostly Cloudy
1:53 AM 48.9 °F 48.0 °F 97% 29.94 in 10.0 mi Calm Calm - N/A   Clear
2:53 AM 48.9 °F 46.9 °F 93% 29.94 in 10.0 mi Calm Calm - N/A   Clear
3:53 AM 46.9 °F 46.0 °F 97% 29.94 in 10.0 mi Calm Calm - N/A   Clear
4:53 AM 45.0 °F 45.0 °F 100% 29.93 in 4.0 mi Calm Calm - N/A   Clear
5:53 AM 48.9 °F 46.9 °F 93% 29.94 in 10.0 mi Calm Calm - N/A   Scattered Clouds
6:53 AM 54.0 °F 48.0 °F 80% 29.97 in 10.0 mi Calm Calm - N/A   Clear
7:53 AM 55.9 °F 48.0 °F 75% 29.97 in 10.0 mi Calm Calm - N/A   Partly Cloudy
8:53 AM 57.0 °F 48.0 °F 72% 29.99 in 10.0 mi Calm Calm - N/A   Scattered Clouds
9:53 AM 57.0 °F 48.9 °F 74% 29.99 in 10.0 mi ESE 6.9 mph - N/A   Scattered Clouds
10:53 AM 60.1 °F 51.1 °F 72% 29.99 in 10.0 mi SE 5.8 mph - N/A   Clear
11:53 AM 62.1 °F 50.0 °F 65% 29.99 in 10.0 mi Variable 5.8 mph - N/A   Scattered Clouds
12:53 PM 63.0 °F 48.9 °F 60% 29.99 in 10.0 mi ESE 6.9 mph - N/A   Clear
1:53 PM 64.9 °F 46.0 °F 50% 29.97 in 10.0 mi East 8.1 mph - N/A   Clear
2:53 PM 66.0 °F 48.9 °F 54% 29.96 in 10.0 mi Variable 5.8 mph - N/A   Clear
3:53 PM 68.0 °F 46.0 °F 45% 29.95 in 10.0 mi SE 6.9 mph - N/A   Clear
4:53 PM 66.9 °F 45.0 °F 45% 29.94 in 10.0 mi ESE 5.8 mph - N/A   Clear
5:53 PM 66.0 °F 44.1 °F 45% 29.94 in 10.0 mi Calm Calm - N/A   Clear
6:53 PM 64.9 °F 48.9 °F 56% 29.94 in 10.0 mi Calm Calm - N/A   Clear
7:53 PM 60.1 °F 52.0 °F 75% 29.96 in 10.0 mi Calm Calm - N/A   Overcast
8:53 PM 57.0 °F 53.1 °F 87% 29.96 in 10.0 mi Calm Calm - N/A   Scattered Clouds
9:53 PM 55.0 °F 52.0 °F 89% 29.98 in 10.0 mi Calm Calm - N/A   Partly Cloudy
10:53 PM 57.9 °F 46.9 °F 67% 29.98 in 10.0 mi NW 6.9 mph - N/A   Overcast
11:53 PM 57.9 °F 41.0 °F 53% 30.00 in 10.0 mi NW 8.1 mph - N/A   Partly Cloudy